Location: アルンシュタイン
(50.0000°N, 10.0000°E)
Time: 06:27:20
(UTC+01:00)

Envisat - Pass Details

Date: 29 October 2021
Orbit: 764 x 766 km, 98.2° (Epoch: 04 December)

Event Time Altitude Azimuth Distance (km) Brightness Sun altitude
Rises 04:51:39 0° 31° (NNE) 3,244 6.9 -31.3°
Reaches altitude 10° 04:55:42 10° 63° (ENE) 2,310 6.3 -30.7°
Maximum altitude 04:57:30 12° 84° (E) 2,184 6.2 -30.4°
Drops below altitude 10° 04:59:18 10° 105° (ESE) 2,303 6.1 -30.1°
Sets 05:03:18 0° 137° (SE) 3,221 6.6 -29.5°
